Regional Weather Roundup
Issued by NWS

Home | Current Version | Previous Version | Graphics & Text | Print | Product List | Glossary On
Versions: 1 2 3 4 5 6 7 8 9 10 11 12 13 14 15 16 17 18 19 20 21 22 23 24 25 26 27 28 29 30 31 32 33 34 35 36 37 38 39 40 41 42 43 44 45 46 47 48 49 50
000
ASUS43 KMKX 212000
RWRWI

WISCONSIN REGIONAL WEATHER ROUNDUP
NATIONAL WEATHER SERVICE MILWAUKEE/SULLIVAN WI
300 PM CDT TUE OCT 21 2014

NOTE: "FAIR" INDICATES FEW OR NO CLOUDS BELOW 12,000 FEET WITH NO
SIGNIFICANT WEATHER AND/OR OBSTRUCTIONS TO VISIBILITY.

WIZ001-002-006>008-014>016-023>028-212100-
NORTHWEST WISCONSIN

CITY           SKY/WX    TMP DP  RH WIND       PRES   REMARKS
SUPERIOR ARPT  MOSUNNY   48  38  68 E10G18    30.23S
ASHLAND        MOSUNNY   48  36  63 N13       30.25F
HAYWARD        SUNNY     50  35  56 NE5       30.21F
SIREN          SUNNY     56  35  45 SE9       30.18F
CUMBERLAND     SUNNY     50  34  53 SE6       30.20S
RICE LAKE      SUNNY     52  36  54 SE8       30.21F
CHETEK         SUNNY     53  37  55 E7        30.20F
LADYSMITH      SUNNY     54  35  49 SE5       30.22S
EAU CLAIRE     NOT AVBL
MENOMONIE      SUNNY     55  38  52 E3        30.20F
NEW RICHMOND   SUNNY     54  38  53 SE9       30.18F
OSCEOLA        SUNNY     55  40  56 E9        30.20F
$$

WIZ003>005-009-010-017-018-212100-
NORTH CENTRAL WISCONSIN

CITY           SKY/WX    TMP DP  RH WIND       PRES   REMARKS
MANITOWISH WTR CLOUDY    43  35  72 CALM      30.23F
ARBOR VITAE    PTSUNNY   45  35  68 SW3       30.23F
WOODRUFF       PTSUNNY   45  35  68 SW3       30.23F
RHINELANDER    SUNNY     47  33  58 CALM      30.23F
EAGLE RIVER    SUNNY     45  32  59 CALM      30.22F
LAND O LAKES   SUNNY     48  33  56 CALM      30.23F
PHILLIPS       SUNNY     47  36  65 SE7       30.22F
TOMAHAWK       SUNNY     47  34  60 CALM      30.23F
MEDFORD        SUNNY     48  35  62 SE3       30.21F
MERRILL        SUNNY     49  35  57 CALM      30.22F
$$

WIZ029-030-035-036-043>047-212100-
CENTRAL WISCONSIN

CITY           SKY/WX    TMP DP  RH WIND       PRES   REMARKS
WAUSAU         SUNNY     50  35  56 SW6       30.21F
MOSINEE        NOT AVBL
MARSHFIELD     SUNNY     51  37  58 E6        30.22S
STEVENS POINT  SUNNY     48  34  59 CALM      30.23S
WAUPACA        SUNNY     54  35  50 CALM      30.23S
WAUTOMA        NOT AVBL
WISC RAPIDS    SUNNY     50  35  56 CALM      30.24S
CAMP DOUGLAS   NOT AVBL
$$

WIZ011>013-019>022-031-037>040-048>050-212100-
NORTHEAST WISCONSIN

CITY           SKY/WX    TMP DP  RH WIND       PRES   REMARKS
ANTIGO         SUNNY     48  35  59 N3        30.22S
SHAWANO        SUNNY     54  33  44 E6        30.23S
OCONTO         SUNNY     51  35  55 NE3       30.22F
STURGEON BAY   SUNNY     48  28  46 N10       30.23S
GREEN BAY      SUNNY     51  36  56 NE9       30.23S
MANITOWOC      NOT AVBL
APPLETON       MOSUNNY   50  34  53 NE7       30.22F
CLINTONVILLE   SUNNY     52  32  46 E5        30.23S
OSHKOSH        SUNNY     49  36  61 NE9       30.23R
$$

WIZ032>034-041-042-053>061-212100-
SOUTHWEST WISCONSIN

CITY           SKY/WX    TMP DP  RH WIND       PRES   REMARKS
LA CROSSE      SUNNY     57  38  48 CALM      30.19F
SPARTA         SUNNY     55  35  46 E6        30.21F
VIROQUA        SUNNY     55  35  48 S3        30.19F
BOSCOBEL       SUNNY     57  37  47 VRB7      30.20F
PRAIRIE DU CHI SUNNY     56  36  47 CALM      30.18F
PLATTEVILLE    SUNNY     54  37  51 E8        30.19F
$$

WIZ056-057-062-063-064-067-068-212100-
SOUTH CENTRAL WISCONSIN

CITY           SKY/WX    TMP DP  RH WIND       PRES   REMARKS
REEDSBURG      MOSUNNY   48  36  64 E7        30.22F
BARABOO/DELLS  PTSUNNY   47  35  62 E3        30.22F
LONE ROCK      NOT AVBL
MINERAL POINT  SUNNY     54  36  50 E8        30.20S
MADISON        CLOUDY    48  37  65 NE8       30.23S
MIDDLETON      CLOUDY    49  37  61 NE7       30.22F
WATERTOWN      CLOUDY    47  38  71 NE5       30.22S
MONROE         CLOUDY    48  37  66 N8        30.21S
JANESVILLE     CLOUDY    52  37  58 N13       30.21S
$$

WIZ051-052-058>065-066-070>072-212100-
SOUTHEAST WISCONSIN

CITY           SKY/WX    TMP DP  RH WIND       PRES   REMARKS
MILWAUKEE      CLOUDY    48  37  65 N12G20    30.21S
WAUKESHA       CLOUDY    46  36  66 N10       30.22S
MILWAUKEE/TIMM CLOUDY    48  36  61 N10       30.22S
RACINE         CLOUDY    49  39  68 N14       30.22R
BURLINGTON     CLOUDY    47  36  66 NE9       30.21R
KENOSHA        CLOUDY    48  39  71 N13       30.21R
FOND DU LAC    MOSUNNY   50  36  58 NE9       30.23S
SHEBOYGAN      SUNNY     50  38  63 NE17      30.22R
WEST BEND      PTSUNNY   50  34  53 N5        30.20F
JUNEAU         CLOUDY    45  37  75 N8        30.24R
$$

LSZ147-162-212100-
LAKE SUPERIOR

STATION/POSITION TIME  TEMP    WIND        PRES    WAVE
                       AIR SEA DIR/SP/G            HT/PER
                 (UTC) (F)     (DEG/KT/KT) (MB)    (FT/S)
W MID LAKE BUOY  1850   42 46   90/  8/ 10 1025.9F   2/ 6
DEVILS ISLAND    1900   42      80/  9/ 10 1025.8F
PORT WING        1940   48      60/  8/  9 1024.4F
SAXON HARBOR     1900   45      30/  6/  7 1024.4F
$$

LMZ867-665-643>646-212100-
LAKE MICHIGAN

STATION/POSITION TIME  TEMP    WIND        PRES    WAVE
                       AIR SEA DIR/SP/G            HT/PER
                 (UTC) (F)     (DEG/KT/KT) (MB)    (FT/S)
CHAMBERS ISLAND  1900   48      20/  9/ 12 1023.7S
N MID LAKE BUOY  1850   45 51   10/ 12/ 16 1023.6F   2/ 5
NORTHPORT PIER   1900   47     340/ 11/ 13 1023.4F
SISTER BAY       1742           20/ 13/ 20   N/A
KEWAUNEE LAKESHO 1900   47      40/ 10/ 12 1022.3F
SHEBOYGAN LAKESH 1900   47 49   20/ 17/ 18 1023.5F
PORT WASHINGTON  1940   49      40/ 13/ 17 1023.4F
ATWATER BUOY     1900   49      10/ 17/ 21 1023.6S
MILWAUKEE LAKESH 1900   48     360/ 14/ 17   N/A
S MID LAKE BUOY  1850   50 54  360/ 17/ 21 1021.5S   6/ 7
KENOSHA   LAKESH 1900   48     350/ 16/ 21 1022.4R
$$

TC  - TEMPERATURE IN CELSIUS
VSB - VISIBILITY IN STATUTE MILES
WCI - WIND CHILL INDEX
HX  - HEAT INDEX




USA.gov is the U.S. government's official web portal to all federal, state and local government web resources and services.